Regional Weather Roundup
Issued by NWS

Home | Current Version | Previous Version | Text Only | Print | Product List | Glossary On
Versions: 1 2 3 4 5 6 7 8 9 10 11 12 13 14 15 16 17 18 19 20 21 22 23 24 25 26 27 28 29 30 31 32 33 34 35 36 37 38 39 40 41 42 43 44 45 46 47 48 49 50
000
ASUS43 KFSD 250410
RWRSD

WEATHER ROUNDUP FOR SOUTH DAKOTA
NATIONAL WEATHER SERVICE SIOUX FALLS SD
1100 PM CDT FRI OCT 24 2014

NOTE: "FAIR" INDICATES FEW OR NO CLOUDS BELOW 12,000 FEET WITH NO
SIGNIFICANT WEATHER AND/OR OBSTRUCTIONS TO VISIBILITY.


SDZ001>005-009-010-012>017-250500-
NORTHWEST AND NORTH CENTRAL SOUTH DAKOTA

CITY           SKY/WX    TMP DP  RH WIND       PRES   REMARKS
BUFFALO          N/A     51  32  48 W6        30.05R
FAITH            N/A     54  34  46 N12       30.08R
MOBRIDGE       CLOUDY    56  38  50 NW5       30.04R
$$

SDZ012>016-024>037-041>051-057-063-072>074-250500-
SOUTHWEST AND SOUTH CENTRAL SOUTH DAKOTA

CITY           SKY/WX    TMP DP  RH WIND       PRES   REMARKS
RAPID CTY ARPT CLEAR     47  34  60 NW12      30.12R
PIERRE         PTCLDY    59  37  44 N14       30.03R
CUSTER         CLEAR     45  34  65 NE5       30.18R
ELLSWORTH AFB  PTCLDY    49  34  55 NW7       30.12R
PHILIP         CLEAR     47  36  65 W8        30.09R
PINE RIDGE     CLEAR     40  35  83 E5        30.10R
SPEARFISH      FAIR      46  36  66 SE3       30.15S
WINNER         FAIR      57  31  37 NW7       30.04R
$$

SDZ004>011-016>023-039-040-250500-
NORTHEAST SOUTH DAKOTA

CITY           SKY/WX    TMP DP  RH WIND       PRES   REMARKS
ABERDEEN       CLOUDY    59  38  45 NW12      30.01R
WATERTOWN      MOCLDY    55  41  59 NW5       29.99R
SISSETON         N/A     59  36  42 N10       29.96R
$$

SDZ017-020-022-023-036>040-048>070-250500-
SOUTHEAST SOUTH DAKOTA

CITY           SKY/WX    TMP DP  RH WIND       PRES   REMARKS
SIOUX FALLS    CLEAR     53  42  66 W3        29.99R
HURON          MOCLDY    54  41  61 N7        30.01R
CHAMBERLAIN    CLEAR     46  35  65 CALM      30.03R
MITCHELL       CLEAR     51  39  63 NW6       30.02R
YANKTON        CLEAR     54  43  66 W6        30.01R
$$

ABBREVIATIONS USED IN REMARKS
   TC - TEMPERATURE IN CELSIUS
  WCI - WIND CHILL INDEX
   HX - HEAT INDEX
  VSB - VISIBILITY




USA.gov is the U.S. government's official web portal to all federal, state and local government web resources and services.